Hourly Data Report for February 12, 2003

SHERBROOKE A
QUEBEC

45°26'00.000" N
71°41'00.000" W
241.40 m
7028124
71610
YSC

Download Data

Hourly Data (February 2003)
Hourly Data Report for February 12, 2003
TIME
LST
Temp Definition
°C
Dew Point Definition
°C
Rel Hum Definition
%
Precip. Amount Definition
mm

Wind Dir Definition
10's deg

Wind Spd Definition
km/h
Visibility Definition
km
Stn Press Definition
kPa
Hmdx Definition


Wind Chill Definition


Weather Definition


00:00 -21.5 -28.7 52   5 6 15.0 97.66   -27  
01:00 -23.7 -29.8 57     0 15.0 97.60      
02:00 -24.6 -30.2 60   7 7 15.0 97.52   -31  
03:00 -25.2 -30.9 59   6 6 15.0 97.33   -31  
04:00 -26.1 -31.5 60   4 7 15.0 97.22   -33  
05:00 -24.3 -30.2 58   6 4 15.0 97.13   -28  
06:00 -23.4 -29.3 58   6 7 2.7 97.09   -30 Snow
07:00 -22.7 -28.1 61   7 7 2.6 96.97   -29 Snow
08:00 -21.5 -26.7 63   7 7 2.0 96.93   -27 Snow
09:00 -18.8 -24.2 62   3 4 1.6 96.88   -22 Snow
10:00 -14.8 -19.6 67     0 1.6 96.82     Snow
11:00 -13.5 -17.6 71   27 6 2.0 96.84   -18 Snow
12:00 -11.1 -15.4 71   22 9 3.2 96.85   -16 Snow
13:00 -10.0 -16.3 60   26 24 24.1 96.90   -19 Mostly Cloudy
14:00 -11.4 -17.6 60   28 41 24.1 96.98   -23 Mostly Cloudy
15:00 -12.0 -19.9 52   26 43 24.1 97.08   -24 Mainly Clear
16:00 -12.8 -22.5 44   26 37 24.1 97.20   -24 Mainly Clear
17:00 -13.6 -22.7 46   26 35 24.1 97.29   -25 Mainly Clear
18:00 -15.0 -25.0 42   26 32 15.0 97.43   -26  
19:00 -16.3 -24.3 50   27 41 15.0 97.51   -29  
20:00 -17.2 -23.5 58   27 35 15.0 97.62   -30  
21:00 -18.4 -25.1 56   27 30 15.0 97.69   -30  
22:00 -19.5 -27.2 50   27 24 15.0 97.69   -31  
23:00 -20.7 -28.3 51   28 20 15.0 97.70   -31  

Notes on Data Quality.

Legend

  • E = Estimated
  • M = Missing
  • NA = Not Available*
  • [empty] = Indicates an unobserved value
Date modified: